• In Deutschland
  • Länderverzeichnis
  • Für 7 Tage
  • Wassertemperatur
  • Satellitenkarten
  • Wetterkarte
  • Widgets
  • user-avatar
    Anmelden

    Stündliche Wetter Bad Wildbad

    Heute, 19 Februar, Montag

    Zeit Temperatur Niederschläge Wind Luftdruck Luftfeuchtigkeit
    00:00 -3°C° 0 mm 1 m/S 711 mmHg 87%
    01:00 -4°C° 0 mm 1 m/S 710 mmHg 90%
    02:00 -4°C° 0 mm 1 m/S 710 mmHg 90%
    03:00 -4°C° 0 mm 1 m/S 710 mmHg 90%
    04:00 -4°C° 0 mm 1 m/S 709 mmHg 91%
    05:00 -4°C° 0 mm 1 m/S 709 mmHg 91%
    06:00 -6°C° 0 mm 1 m/S 709 mmHg 90%
    07:00 -6°C° 0 mm 1 m/S 709 mmHg 90%
    08:00 -4°C° 0 mm 1 m/S 709 mmHg 86%
    09:00 -2°C° 0 mm 1 m/S 709 mmHg 82%
    10:00 -1°C° 0 mm 1 m/S 709 mmHg 77%
    11:00 0°C° 0 mm 1 m/S 709 mmHg 74%
    12:00 +1°C° 0 mm 1 m/S 709 mmHg 70%
    13:00 +2°C° 0 mm 1 m/S 708 mmHg 67%
    14:00 +2°C° 0 mm 1 m/S 708 mmHg 67%
    15:00 +2°C° 0 mm 1 m/S 708 mmHg 67%
    16:00 +2°C° 0 mm 1 m/S 707 mmHg 67%
    17:00 +1°C° 0 mm 1 m/S 707 mmHg 72%
    18:00 -1°C° 0 mm 0 m/S 707 mmHg 76%
    19:00 -2°C° 0 mm 0 m/S 707 mmHg 81%
    20:00 -2°C° 0 mm 0 m/S 707 mmHg 82%
    21:00 -3°C° 0 mm 0 m/S 706 mmHg 83%
    22:00 -3°C° 0 mm 0 m/S 706 mmHg 84%
    23:00 -3°C° 0 mm 0 m/S 706 mmHg 84%

    Morgen, 20 Februar, Dienstag

    Zeit Temperatur Niederschläge Wind Luftdruck Luftfeuchtigkeit
    00:00 -3°C° 0 mm 0 m/S 706 mmHg 85%
    01:00 -4°C° 0 mm 0 m/S 706 mmHg 85%
    02:00 -4°C° 0 mm 0 m/S 706 mmHg 86%
    03:00 -4°C° 0 mm 0 m/S 706 mmHg 86%
    04:00 -4°C° 0 mm 0 m/S 705 mmHg 86%
    05:00 -4°C° 0 mm 0 m/S 705 mmHg 86%
    06:00 -4°C° 0 mm 0 m/S 705 mmHg 87%
    07:00 -4°C° 0 mm 0 m/S 705 mmHg 87%
    08:00 -2°C° 0 mm 1 m/S 706 mmHg 82%
    09:00 -1°C° 0 mm 1 m/S 706 mmHg 77%
    10:00 0°C° 0 mm 1 m/S 706 mmHg 72%
    11:00 +1°C° 0 mm 1 m/S 706 mmHg 68%
    12:00 +1°C° 0 mm 2 m/S 706 mmHg 64%
    13:00 +1°C° 0 mm 2 m/S 706 mmHg 60%
    14:00 +1°C° 0 mm 2 m/S 706 mmHg 60%
    15:00 +1°C° 0 mm 2 m/S 706 mmHg 60%
    16:00 +1°C° 0 mm 2 m/S 706 mmHg 61%
    17:00 -1°C° 0 mm 2 m/S 706 mmHg 66%
    18:00 -2°C° 0 mm 2 m/S 706 mmHg 72%
    19:00 -4°C° 0 mm 2 m/S 706 mmHg 77%
    20:00 -4°C° 0 mm 2 m/S 707 mmHg 79%
    21:00 -2°C° 0 mm 1 m/S 707 mmHg 80%
    22:00 -2°C° 0 mm 1 m/S 707 mmHg 82%
    23:00 -4°C° 0 mm 2 m/S 707 mmHg 84%

    übermorgen, 21 Februar, Mittwoch

    Zeit Temperatur Niederschläge Wind Luftdruck Luftfeuchtigkeit
    00:00 -5°C° 0 mm 2 m/S 707 mmHg 85%
    01:00 -5°C° 0 mm 2 m/S 707 mmHg 87%
    02:00 -5°C° 0 mm 2 m/S 708 mmHg 88%
    03:00 -5°C° 0 mm 2 m/S 708 mmHg 89%
    04:00 -5°C° 0 mm 2 m/S 708 mmHg 90%
    05:00 -5°C° 0 mm 2 m/S 708 mmHg 90%
    06:00 -5°C° 0 mm 2 m/S 708 mmHg 90%
    07:00 -5°C° 0 mm 2 m/S 708 mmHg 90%
    08:00 -5°C° 0 mm 3 m/S 708 mmHg 85%
    09:00 -4°C° 0 mm 3 m/S 709 mmHg 80%
    10:00 -4°C° 0 mm 3 m/S 709 mmHg 75%
    11:00 -2°C° 0 mm 3 m/S 709 mmHg 70%
    12:00 -1°C° 0 mm 3 m/S 709 mmHg 66%
    13:00 -1°C° 0 mm 4 m/S 709 mmHg 61%
    14:00 -1°C° 0 mm 4 m/S 708 mmHg 60%
    15:00 -1°C° 0 mm 4 m/S 708 mmHg 59%
    16:00 0°C° 0 mm 4 m/S 708 mmHg 58%
    17:00 -1°C° 0 mm 3 m/S 708 mmHg 63%
    18:00 -2°C° 0 mm 3 m/S 708 mmHg 68%
    19:00 -5°C° 0 mm 3 m/S 707 mmHg 73%
    20:00 -5°C° 0 mm 3 m/S 707 mmHg 74%
    21:00 -5°C° 0 mm 3 m/S 707 mmHg 75%
    22:00 -6°C° 0 mm 3 m/S 707 mmHg 77%
    23:00 -6°C° 0 mm 3 m/S 707 mmHg 77%

    22 Februar, Donnerstag

    Zeit Temperatur Niederschläge Wind Luftdruck Luftfeuchtigkeit
    00:00 -6°C° 0 mm 3 m/S 707 mmHg 77%
    01:00 -6°C° 0 mm 3 m/S 706 mmHg 78%
    02:00 -6°C° 0 mm 3 m/S 706 mmHg 77%
    03:00 -7°C° 0 mm 4 m/S 706 mmHg 77%
    04:00 -7°C° 0 mm 4 m/S 705 mmHg 76%
    05:00 -7°C° 0 mm 4 m/S 705 mmHg 75%
    06:00 -7°C° 0 mm 4 m/S 705 mmHg 74%
    07:00 -7°C° 0 mm 5 m/S 705 mmHg 73%
    08:00 -7°C° 0 mm 5 m/S 705 mmHg 69%
    09:00 -6°C° 0 mm 6 m/S 705 mmHg 66%
    10:00 -5°C° 0 mm 6 m/S 705 mmHg 62%
    11:00 -4°C° 0 mm 6 m/S 705 mmHg 60%
    12:00 -4°C° 0 mm 7 m/S 705 mmHg 57%
    13:00 -3°C° 0 mm 7 m/S 705 mmHg 55%
    14:00 -3°C° 0 mm 7 m/S 705 mmHg 55%
    15:00 -3°C° 0 mm 6 m/S 705 mmHg 55%
    16:00 -3°C° 0 mm 6 m/S 704 mmHg 56%
    17:00 -4°C° 0 mm 6 m/S 704 mmHg 58%
    18:00 -4°C° 0 mm 6 m/S 705 mmHg 61%
    19:00 -5°C° 0 mm 5 m/S 705 mmHg 64%
    20:00 -5°C° 0 mm 5 m/S 705 mmHg 65%
    21:00 -6°C° 0 mm 5 m/S 705 mmHg 65%
    22:00 -6°C° 0 mm 5 m/S 705 mmHg 66%
    23:00 -6°C° 0 mm 5 m/S 704 mmHg 66%

    23 Februar, Freitag

    Zeit Temperatur Niederschläge Wind Luftdruck Luftfeuchtigkeit
    00:00 -6°C° 0 mm 5 m/S 704 mmHg 66%
    01:00 -7°C° 0 mm 5 m/S 704 mmHg 67%
    02:00 -7°C° 0 mm 5 m/S 704 mmHg 67%
    03:00 -7°C° 0 mm 5 m/S 704 mmHg 67%
    04:00 -7°C° 0 mm 5 m/S 704 mmHg 68%
    05:00 -7°C° 0 mm 5 m/S 704 mmHg 68%
    06:00 -7°C° 0 mm 5 m/S 704 mmHg 68%
    07:00 -7°C° 0 mm 5 m/S 704 mmHg 68%
    08:00 -7°C° 0 mm 5 m/S 705 mmHg 66%
    09:00 -6°C° 0 mm 5 m/S 705 mmHg 64%
    10:00 -5°C° 0 mm 6 m/S 705 mmHg 62%
    11:00 -4°C° 0 mm 6 m/S 705 mmHg 60%
    12:00 -3°C° 0 mm 6 m/S 705 mmHg 58%
    13:00 -2°C° 0 mm 6 m/S 706 mmHg 56%
    14:00 -2°C° 0 mm 6 m/S 706 mmHg 56%
    15:00 -2°C° 0 mm 6 m/S 706 mmHg 56%
    16:00 -2°C° 0 mm 6 m/S 706 mmHg 56%
    17:00 -3°C° 0 mm 6 m/S 706 mmHg 57%
    18:00 -4°C° 0 mm 6 m/S 706 mmHg 58%
    19:00 -5°C° 0 mm 5 m/S 706 mmHg 59%
    20:00 -5°C° 0 mm 6 m/S 707 mmHg 59%
    21:00 -6°C° 0 mm 6 m/S 707 mmHg 58%
    22:00 -8°C° 0 mm 6 m/S 707 mmHg 58%
    23:00 -8°C° 0 mm 6 m/S 707 mmHg 58%

    24 Februar, Samstag

    Zeit Temperatur Niederschläge Wind Luftdruck Luftfeuchtigkeit
    00:00 -8°C° 0 mm 6 m/S 707 mmHg 58%
    01:00 -9°C° 0 mm 6 m/S 708 mmHg 58%
    02:00 -8°C° 0 mm 5 m/S 708 mmHg 56%
    03:00 -8°C° 0 mm 5 m/S 708 mmHg 54%
    04:00 -10°C° 0 mm 5 m/S 708 mmHg 52%
    05:00 -10°C° 0 mm 5 m/S 709 mmHg 50%
    06:00 -10°C° 0 mm 5 m/S 709 mmHg 48%
    07:00 -10°C° 0 mm 5 m/S 709 mmHg 46%
    08:00 -10°C° 0 mm 5 m/S 710 mmHg 42%
    09:00 -9°C° 0 mm 6 m/S 711 mmHg 39%
    10:00 -8°C° 0 mm 6 m/S 711 mmHg 36%
    11:00 -6°C° 0 mm 6 m/S 711 mmHg 34%
    12:00 -5°C° 0 mm 6 m/S 711 mmHg 32%
    13:00 -4°C° 0 mm 6 m/S 711 mmHg 31%
    14:00 -4°C° 0 mm 6 m/S 711 mmHg 31%
    15:00 -4°C° 0 mm 6 m/S 711 mmHg 31%
    16:00 -4°C° 0 mm 6 m/S 711 mmHg 32%
    17:00 -5°C° 0 mm 6 m/S 711 mmHg 34%
    18:00 -6°C° 0 mm 5 m/S 711 mmHg 37%
    19:00 -7°C° 0 mm 5 m/S 711 mmHg 40%
    20:00 -8°C° 0 mm 5 m/S 711 mmHg 42%
    21:00 -8°C° 0 mm 5 m/S 711 mmHg 44%
    22:00 -8°C° 0 mm 5 m/S 711 mmHg 47%
    23:00 -10°C° 0 mm 5 m/S 711 mmHg 48%
    Mehr zeigen